Flag for Colombia Weather past 2 weeks in Cali, Colombia

Now
86 °F

Scattered clouds.


Feels Like: 87 °F
Forecast: 66 / 86 °F
Wind: 2 mph from North

Location: Cali / Alfonso Bonillaaragon

Current Time: Sep 30, 2014 at 12:54:26 PM

Latest Report: Sep 30, 2014 at 12:00 PM


Visibility: N/A

Pressure: 29.91 "Hg

Humidity: 46%

Dew point: 63 °F

Location of CaliLocation

Historic Weather in Cali — Graph

°F

Cali temperature yesterday

Maximum temperature yesterday: 91 °F (at 2:00 PM)
Minimum temperature yesterday: 68 °F (at 11:00 PM)
Average temperature yesterday: 77 °F

Past Weeks' High & Low Weather Summary

 TemperatureHumidityPressure
High93 °F (Sep 28, 3:00 PM)94% (Sep 16, 5:00 AM)30.14 "Hg (Sep 16, 5:00 AM)
Low63 °F (Sep 23, 6:00 AM)36% (Sep 16, 4:00 PM)28.19 "Hg (Sep 15, 2:00 PM)
Average75 °F72%29.97 "Hg
* Reported Sep 15 11:00 AM — Sep 30 11:00 AM, Cali, Weather by CustomWeather, © 2014

Note: Actual official high and low records may vary slightly from our data, if they occured in-between our weather recording intervals... More about our weather records

Advertising

Cali weather history for previous 24 hours

 ConditionsComfort  
Time TempWeatherWind HumidityBarometerVisibility
11:00 AM
Sep 30
84 °FScattered clouds.2 mph51%29.96 "HgN/A
10:00 AM81 °FPartly sunny.6 mph58%29.99 "HgN/A
9:00 AM75 °FPartly sunny.No wind69%30.00 "Hg6 mi
8:00 AM70 °FPartly sunny.No wind78%29.99 "Hg6 mi
7:00 AM66 °FPartly sunny.No wind88%29.98 "Hg6 mi
6:00 AM64 °FPartly sunny.No wind88%29.95 "HgN/A
5:00 AM66 °FPassing clouds.No wind94%29.94 "HgN/A
4:00 AM66 °FPartly cloudy.2 mph94%29.93 "HgN/A
3:00 AM66 °FPassing clouds.5 mph94%29.93 "HgN/A
2:00 AM66 °FPartly cloudy.2 mph88%29.94 "HgN/A
1:00 AM66 °FPassing clouds.3 mph88%29.95 "HgN/A
12:00 AM66 °FPassing clouds.3 mph94%29.96 "HgN/A
11:00 PM
Sep 29
68 °FPassing clouds.6 mph88%29.97 "HgN/A
10:00 PM70 °FPassing clouds.6 mph88%29.97 "HgN/A
9:00 PM72 °FPassing clouds.5 mph83%29.94 "HgN/A
8:00 PM75 °FPassing clouds.9 mph69%29.91 "HgN/A
7:00 PM79 °FOvercast.14 mph58%29.87 "HgN/A
6:00 PM81 °FPartly cloudy.16 mph58%29.85 "HgN/A
5:00 PM82 °FBroken clouds.14 mph55%29.83 "HgN/A
4:00 PM86 °FBroken clouds.14 mph49%29.84 "HgN/A
3:00 PM86 °FScattered clouds.14 mph52%29.84 "HgN/A
2:00 PM91 °FScattered clouds.3 mph44%29.86 "HgN/A
1:00 PM90 °FScattered clouds.3 mph43%29.89 "HgN/A
12:00 PM88 °FPartly sunny.3 mph43%29.93 "HgN/A
Weather by CustomWeather, © 2014

See weather overviewHow to use our weather pages